Temperature
17 17 16 16 16 16 16 16 16 16 16 16 16 16 16 16 15 15 15 15 15 15 15 15 15 15 15 15 15 15 15 15 14 14 14 14 14 14 13 13 13 13 13
17 17 17 16 16 16 16 16 16 16 16 16 16 16 16 16 16 15 15 15 15 15 15 15 15 15 15 15 15 15 15 14 14 14 14 13 13 13 13 13 13 13 13
17 17 17 16 16 16 16 16 16 16 16 16 16 16 16 16 16 15 15 15 15 15 15 15 15 15 15 15 15 15 14 14 14 14 14 13 13 13 13 13 13 13 13
17 17 17 17 17 16 16 16 16 16 16 16 16 16 16 16 16 15 15 15 15 15 15 15 15 15 15 15 15 15 14 14 14 14 14 13 13 13 13 13 13 13 13
17 17 17 17 16 16 16 16 16 16 16 16 16 16 16 16 16 16 15 15 15 15 15 15 15 15 15 15 15 14 14 14 14 14 14 13 13 13 13 13 13 13 13
17 17 16 16 16 16 16 16 16 16 16 16 16 16 16 16 16 16 15 15 15 15 15 15 15 15 15 15 14 14 14 14 14 14 13 13 13 13 13 13 12 12 12
17 17 16 16 16 16 16 16 16 16 16 16 16 16 16 16 16 15 15 15 15 15 15 15 15 15 15 14 14 14 14 14 14 13 13 13 13 13 13 12 12 12 12
17 17 16 16 16 16 16 16 16 16 15 15 15 15 15 15 15 15 15 15 15 15 15 15 15 15 14 14 14 14 14 13 13 13 13 13 13 12 12 12 12 12 12
17 17 16 16 16 16 16 16 16 15 15 15 15 15 15 15 15 15 15 15 15 15 14 14 14 14 14 14 14 14 13 13 13 13 12 12 12 12 12 12 11 11 11
17 17 16 16 16 16 16 16 15 15 15 15 15 15 15 15 15 15 15 15 14 14 14 14 14 14 14 14 13 13 13 13 12 12 12 12 12 11 11 11 11 11 10
17 17 16 16 16 16 16 15 15 15 15 15 15 15 15 15 15 15 15 15 14 14 14 14 14 14 13 13 13 13 13 12 12 12 12 12 11 11 11 10 10 10 9
17 17 16 16 16 15 15 15 15 15 15 14 14 14 14 14 14 14 14 14 14 14 14 13 13 13 13 13 13 13 12 12 12 11 11 11 11 10 10 10 10 9 9
17 16 16 16 15 15 15 15 15 15 14 14 14 14 14 14 14 14 14 14 14 14 13 13 13 13 13 12 12 12 12 12 11 11 10 10 10 10 10 10 9 9 9
16 16 16 15 15 15 15 15 14 14 14 14 14 14 14 14 14 14 14 14 13 13 13 13 12 12 12 12 12 12 11 11 11 10 10 9 9 9 9 9 8 8 8
16 16 15 15 15 15 15 14 14 14 14 14 14 14 14 14 14 14 14 14 13 13 13 12 12 12 12 11 11 11 11 10 10 10 9 9 9 9 8 8 8 7 7
16 15 15 15 15 14 14 14 14 14 14 14 14 14 14 14 14 14 13 13 13 13 12 12 12 11 11 11 10 10 10 10 9 9 9 9 8 8 8 7 7 7 6
15 15 15 15 14 14 14 14 14 13 13 13 13 13 13 13 13 13 13 13 12 12 12 12 11 11 10 10 10 9 9 9 9 9 8 8 8 7 7 7 6 6 6
15 15 14 14 14 14 14 14 14 14 13 13 13 13 13 13 13 13 13 12 12 12 11 11 11 10 10 10 9 9 9 8 8 8 8 7 7 7 6 6 6 5 5
14 14 14 14 14 13 13 13 13 13 13 13 13 13 13 12 12 12 12 12 12 11 11 11 10 10 10 9 9 9 8 8 8 7 7 7 6 6 6 5 5 5 4
14 14 14 14 13 13 13 13 13 13 13 13 13 13 12 12 12 12 12 11 11 11 11 10 10 10 9 9 8 8 8 7 7 7 6 6 6 5 5 5 4 4 4
14 14 13 13 13 13 13 13 12 12 12 12 12 12 12 12 12 11 11 11 11 10 10 10 9 9 9 8 8 8 7 7 7 6 6 6 5 5 5 4 4 4 3
14 13 13 13 13 13 13 12 12 12 12 12 12 12 11 11 11 11 11 11 10 10 9 9 9 9 8 8 7 7 7 6 6 6 5 5 5 4 4 3 3 3 2
13 13 13 13 13 12 12 12 12 12 12 12 11 11 11 11 10 10 10 10 10 9 9 8 8 8 7 7 7 6 6 6 5 5 5 4 4 3 3 3 2 2 2
13 13 13 12 12 12 12 12 12 11 11 11 11 10 10 10 10 10 10 9 9 8 8 8 7 7 7 7 6 6 5 5 5 4 4 4 3 3 3 2 2 1 1
12 12 12 12 12 12 12 11 11 11 11 10 10 10 9 10 9 9 9 8 8 8 7 7 7 6 6 6 6 5 5 5 4 4 4 3 3 2 2 2 1 1 1
12 12 12 12 12 11 11 11 10 10 10 10 10 9 9 9 9 9 8 8 7 7 7 6 6 6 6 5 5 5 4 4 4 3 3 3 2 2 1 1 1 0 0
Wind_Speed
7 6 5 4 4 4 3 3 3 3 4 5 3 3 3 3 4 3 2 1 2 2 2 4 4 3 2 2 2 3 3 3 3 1 1 1 2 2 3 2 4 5 4
7 7 6 5 5 5 4 3 3 3 4 4 4 3 4 4 4 4 3 2 3 3 3 5 4 3 3 3 2 3 2 3 3 2 1 1 2 1 2 1 1 3 4
8 7 7 6 5 6 5 4 3 3 3 4 4 3 3 4 3 3 3 3 3 3 4 4 4 4 4 3 3 3 2 3 3 2 1 1 1 1 2 1 2 1 1
8 7 7 7 6 6 6 5 3 3 3 3 3 4 4 4 3 2 2 3 3 3 4 4 5 5 4 3 3 3 3 3 3 3 1 1 1 2 3 2 2 2 1
9 7 7 7 6 5 6 5 4 3 4 3 4 4 4 3 3 4 2 2 3 4 4 6 7 8 8 5 4 3 4 3 2 2 1 1 1 2 1 1 2 2 2
9 8 7 7 7 6 6 6 5 4 3 3 3 4 4 4 6 7 5 4 3 3 4 5 6 6 6 6 6 6 5 4 2 2 1 1 1 1 1 2 1 2 2
10 9 8 7 7 6 6 6 6 4 4 4 4 5 5 5 6 6 6 4 3 4 4 4 4 5 4 3 3 4 4 4 3 2 2 1 1 1 2 2 2 2 2
9 9 9 9 8 7 6 7 6 5 5 4 4 5 5 4 4 4 4 2 3 3 4 4 4 4 4 4 3 3 3 2 2 3 2 2 2 2 1 0 1 3 3
9 9 10 9 9 8 7 7 6 6 5 5 4 5 5 4 3 3 3 1 2 2 4 5 5 5 6 6 4 4 3 2 3 4 3 2 3 5 5 3 3 3 3
9 9 9 10 9 9 8 7 5 6 6 6 5 4 5 4 4 4 3 1 2 3 4 5 7 7 7 7 4 3 3 2 2 3 2 2 3 4 5 3 2 2 2
8 8 9 9 9 8 7 6 6 6 6 6 6 4 4 5 5 5 4 2 2 3 3 3 3 6 7 7 5 4 3 2 2 2 2 2 2 2 2 3 3 1 1
9 9 8 8 8 8 7 6 6 6 6 5 5 4 4 5 5 5 5 4 3 3 3 3 4 7 7 6 4 4 6 5 3 2 2 2 2 2 2 3 4 4 2
9 9 8 8 7 7 8 7 6 6 5 5 5 4 3 3 4 6 6 6 5 4 4 6 7 6 5 4 4 4 4 3 2 2 2 1 1 1 3 3 4 5 5
9 8 8 8 7 7 6 6 5 5 5 5 5 5 4 4 4 4 4 4 5 4 4 5 6 5 3 2 2 1 1 1 1 1 1 1 2 2 2 2 2 2 2
8 8 8 7 7 6 5 4 5 4 4 5 4 4 5 4 5 8 7 5 4 5 5 3 2 2 1 1 1 1 1 1 1 1 2 2 2 2 2 1 2 2 2
7 7 6 6 6 6 7 5 7 6 8 8 6 6 4 6 9 10 10 8 8 9 6 3 2 2 2 1 1 1 1 1 1 1 1 2 2 2 2 2 2 2 2
7 6 6 6 7 7 7 7 6 5 8 8 7 8 7 8 10 10 10 9 8 8 4 3 2 2 2 2 1 1 1 1 1 1 1 1 2 2 2 2 2 2 2
6 7 6 5 6 7 7 6 6 7 5 3 4 6 8 8 9 10 11 9 5 3 2 2 2 2 2 2 1 1 1 1 1 1 1 1 1 2 2 2 2 2 2
6 5 6 5 5 5 6 6 6 6 5 5 4 3 6 8 8 8 8 4 4 3 3 2 2 2 2 2 1 1 1 1 1 1 1 1 1 1 2 2 2 4 3
5 8 7 6 5 5 6 6 6 6 6 5 5 5 5 5 4 4 3 3 3 3 3 3 2 2 2 2 1 1 1 2 2 2 2 2 2 2 2 3 2 3 3
5 6 8 6 5 5 5 6 6 6 6 5 5 5 9 6 6 5 4 4 3 3 3 3 3 2 2 2 2 2 2 2 2 2 2 2 2 2 2 2 3 3 3
6 5 5 5 4 4 4 5 5 6 6 6 5 5 9 6 5 4 4 4 3 3 3 3 3 3 3 2 2 2 2 2 2 2 2 2 2 2 3 3 3 3 4
6 6 5 4 4 5 5 4 5 5 5 5 6 6 6 5 5 4 4 4 4 4 5 6 5 4 5 6 5 4 3 2 2 2 2 2 2 2 2 3 3 4 4
6 6 6 5 5 5 5 5 5 5 5 5 5 5 5 5 5 5 4 4 5 5 6 7 6 6 7 6 6 6 6 6 5 5 4 2 2 2 2 3 3 4 4
5 6 5 5 5 5 5 5 5 5 5 5 5 5 5 6 5 5 4 5 6 6 7 7 7 7 7 8 8 7 7 7 6 5 5 3 2 2 3 3 3 4 4
5 5 5 5 5 5 5 5 5 5 5 5 5 5 6 5 5 5 5 5 5 5 6 7 8 7 7 8 8 8 8 7 6 6 5 4 2 2 3 3 4 4 4
Wind_Direction
169 160 156 147 142 139 139 142 142 139 131 132 135 130 126 123 108 98 100 74 87 101 103 103 87 73 78 68 53 65 59 81 99 59 82 104 103 94 101 107 123 122 114
163 160 165 156 160 156 152 162 151 141 138 141 137 132 124 116 118 121 121 96 73 69 76 91 96 85 71 64 59 68 72 86 105 106 68 45 84 127 135 163 123 120 122
161 168 164 157 169 164 157 159 158 145 144 141 137 130 118 116 118 126 129 118 104 90 84 86 94 92 80 72 68 63 55 71 83 101 81 40 46 48 55 14 40 76 126
163 171 165 166 175 165 154 155 157 142 128 126 122 110 98 92 88 86 100 102 101 96 96 86 76 79 77 72 76 65 63 62 67 75 76 61 45 23 56 30 4 340 334
165 173 169 165 161 152 145 144 142 130 126 115 103 102 94 84 58 51 49 93 103 98 92 90 84 81 77 72 77 67 66 67 71 73 64 46 39 41 22 349 359 333 336
168 174 168 165 154 150 147 140 135 127 123 113 109 106 95 80 72 59 45 50 73 98 103 110 113 98 95 87 91 92 90 90 88 76 47 51 32 41 23 17 15 10 329
173 172 167 162 151 154 151 138 134 129 113 107 104 101 97 88 83 65 55 38 40 55 71 89 92 93 100 105 111 113 96 98 101 100 73 40 52 26 41 11 355 332 279
176 170 162 159 154 154 148 144 144 136 131 127 123 117 111 105 100 86 65 48 57 58 62 71 91 91 70 74 91 102 100 90 107 107 96 60 57 46 58 342 286 320 311
176 169 163 159 155 155 155 154 153 145 143 142 136 132 125 122 129 122 97 102 105 89 79 60 73 87 70 62 67 75 73 60 85 110 112 81 60 45 37 40 18 14 342
173 166 161 158 157 159 162 159 151 147 149 142 138 144 140 135 143 139 133 120 120 101 94 80 72 87 78 63 65 68 61 37 40 55 60 33 39 38 35 46 39 19 347
155 153 154 157 158 158 158 153 146 143 145 146 146 144 138 138 149 144 129 117 115 112 103 95 87 91 83 68 64 67 60 29 17 44 56 43 49 56 44 20 19 61 25
144 148 152 153 157 157 153 153 150 150 153 156 150 148 145 142 147 152 140 134 97 96 101 99 101 97 88 77 71 55 41 30 23 34 43 34 31 24 28 28 12 12 11
142 147 149 149 149 150 153 156 156 157 161 165 159 161 157 144 150 151 149 143 126 108 103 113 117 106 92 81 70 61 51 40 35 37 27 13 9 31 43 30 14 3 351
149 150 150 154 152 151 152 158 160 167 173 174 167 167 163 150 144 147 150 141 132 127 119 111 108 102 87 77 80 71 84 67 66 41 16 3 9 28 30 22 355 343 344
148 155 158 156 152 150 143 144 160 160 169 169 168 162 159 163 162 153 150 151 154 149 136 122 118 119 126 119 107 92 80 58 36 17 23 13 9 8 0 2 8 2 348
153 159 159 154 152 148 139 115 76 93 105 110 113 123 126 137 140 138 136 136 138 140 133 137 149 149 146 138 126 101 81 70 54 44 28 13 2 355 349 354 5 359 333
158 160 156 156 155 155 151 147 134 83 81 88 100 113 120 133 136 137 134 125 125 130 126 144 145 139 127 111 106 98 83 71 61 52 37 17 2 347 343 341 342 340 328
155 153 149 154 158 158 157 158 154 148 137 111 92 117 129 130 131 132 129 117 109 121 139 144 137 120 109 101 95 92 81 67 59 45 30 9 353 342 341 338 334 332 320
148 148 148 147 147 150 150 151 152 151 148 143 131 120 134 126 119 124 130 130 141 139 129 120 115 112 107 104 97 86 85 84 62 46 14 349 341 342 334 328 326 331 329
140 141 141 140 144 149 151 154 158 158 159 155 153 151 145 131 129 135 143 139 135 134 131 131 122 117 116 115 105 89 69 59 47 34 15 4 358 355 341 338 338 331 323
134 140 139 141 148 154 158 161 162 159 158 155 157 157 152 150 152 151 151 148 146 145 142 135 127 119 113 103 93 78 69 55 47 36 19 2 356 347 338 338 334 330 328
141 147 151 151 148 150 153 153 153 151 151 151 145 142 149 142 143 144 146 146 143 129 117 119 118 105 95 94 95 85 64 55 38 21 8 355 349 344 343 344 342 335 331
144 144 145 145 141 142 140 135 138 143 148 149 147 141 146 150 145 140 138 134 120 109 103 103 103 91 79 72 69 71 72 56 32 22 8 354 348 342 341 339 337 335 330
141 146 148 146 142 143 142 142 144 146 146 144 141 140 143 143 136 131 127 117 114 107 103 102 100 96 85 74 73 71 65 55 43 28 14 354 348 346 342 335 330 329 326
141 143 144 144 144 145 144 144 144 141 140 140 139 135 133 132 130 128 122 115 113 109 104 100 96 90 85 82 79 70 63 54 42 27 13 3 4 1 341 331 330 331 331
134 137 138 137 139 141 142 143 141 137 134 131 130 129 129 129 130 128 121 115 110 107 102 98 94 88 84 83 80 73 62 48 34 21 13 7 10 357 342 331 330 332 329
Height
1537 1540 1542 1544 1546 1548 1549 1551 1552 1553 1554 1555 1556 1557 1558 1558 1559 1559 1560 1560 1560 1561 1561 1562 1562 1562 1563 1563 1564 1564 1565 1565 1565 1566 1566 1566 1565 1565 1564 1563 1562 1561 1560
1535 1538 1541 1543 1545 1547 1549 1550 1552 1553 1554 1555 1557 1557 1558 1559 1559 1560 1560 1561 1561 1562 1562 1562 1563 1563 1563 1564 1564 1565 1565 1565 1566 1566 1566 1566 1566 1565 1564 1564 1563 1562 1561
1534 1537 1539 1542 1544 1546 1548 1550 1551 1553 1554 1556 1557 1558 1558 1559 1560 1560 1561 1561 1562 1562 1563 1563 1563 1564 1564 1564 1565 1565 1565 1565 1566 1566 1566 1566 1566 1565 1565 1564 1563 1562 1561
1532 1535 1538 1540 1543 1546 1548 1550 1551 1553 1554 1555 1557 1558 1558 1559 1560 1561 1561 1562 1563 1563 1563 1564 1564 1564 1564 1565 1565 1565 1565 1565 1566 1566 1566 1566 1566 1565 1565 1563 1563 1562 1561
1530 1533 1536 1539 1542 1544 1547 1549 1551 1552 1553 1555 1556 1557 1558 1559 1560 1561 1562 1562 1563 1564 1564 1564 1564 1565 1565 1565 1565 1565 1565 1565 1566 1566 1566 1565 1565 1564 1564 1563 1562 1561 1560
1528 1531 1535 1538 1540 1543 1545 1547 1549 1551 1553 1554 1555 1557 1558 1559 1560 1561 1562 1563 1563 1564 1564 1564 1565 1565 1565 1565 1565 1565 1566 1566 1565 1565 1565 1565 1564 1564 1563 1562 1561 1560 1559
1526 1529 1532 1536 1538 1541 1544 1546 1548 1550 1552 1554 1555 1556 1557 1558 1560 1561 1562 1562 1563 1564 1564 1564 1565 1565 1565 1565 1565 1565 1565 1565 1566 1565 1565 1564 1564 1563 1562 1561 1560 1559 1558
1524 1527 1530 1533 1536 1539 1542 1544 1547 1549 1551 1553 1554 1555 1556 1558 1559 1560 1561 1562 1563 1563 1564 1564 1565 1565 1565 1565 1565 1565 1565 1565 1565 1565 1564 1564 1563 1562 1561 1560 1559 1558 1557
1521 1524 1527 1530 1533 1536 1540 1542 1545 1547 1549 1551 1553 1554 1555 1557 1558 1559 1561 1561 1562 1563 1563 1564 1564 1564 1565 1565 1565 1565 1564 1564 1564 1564 1564 1563 1562 1561 1560 1559 1557 1556 1555
1518 1521 1525 1528 1531 1534 1537 1540 1543 1546 1548 1550 1551 1553 1555 1556 1558 1559 1560 1561 1561 1562 1563 1563 1564 1564 1564 1564 1564 1564 1564 1564 1563 1563 1562 1561 1561 1560 1559 1558 1556 1555 1554
1515 1519 1522 1526 1529 1532 1535 1538 1541 1543 1546 1548 1550 1552 1553 1555 1556 1558 1559 1559 1560 1561 1562 1562 1563 1563 1563 1563 1563 1563 1563 1563 1562 1562 1561 1560 1559 1558 1557 1556 1555 1554 1553
1513 1516 1520 1524 1527 1530 1533 1536 1539 1541 1544 1546 1548 1550 1552 1553 1555 1556 1557 1558 1559 1560 1560 1561 1562 1562 1562 1562 1562 1562 1562 1561 1561 1560 1559 1558 1558 1557 1556 1555 1554 1553 1552
1511 1514 1518 1521 1525 1527 1530 1533 1536 1539 1541 1544 1546 1548 1550 1551 1553 1555 1556 1557 1558 1559 1559 1560 1561 1561 1561 1561 1561 1560 1560 1559 1559 1558 1558 1557 1556 1556 1555 1553 1552 1551 1550
1509 1512 1515 1519 1522 1525 1527 1530 1533 1536 1539 1541 1543 1545 1547 1549 1551 1552 1554 1555 1556 1557 1558 1558 1559 1559 1559 1559 1559 1558 1558 1557 1557 1557 1556 1555 1555 1554 1552 1551 1550 1548 1547
1507 1510 1513 1516 1519 1522 1525 1528 1530 1533 1536 1538 1541 1543 1545 1546 1548 1550 1552 1553 1554 1555 1556 1556 1557 1557 1557 1557 1557 1556 1556 1556 1555 1555 1554 1553 1552 1551 1550 1549 1547 1546 1544
1504 1507 1511 1513 1517 1520 1523 1526 1529 1531 1534 1536 1539 1541 1543 1545 1547 1548 1550 1551 1552 1553 1553 1554 1554 1555 1555 1555 1555 1554 1554 1553 1553 1552 1552 1551 1550 1549 1547 1546 1545 1543 1542
1502 1505 1508 1511 1514 1517 1520 1523 1525 1529 1531 1534 1536 1538 1541 1542 1544 1546 1547 1548 1549 1550 1551 1551 1552 1552 1553 1553 1553 1552 1552 1551 1551 1550 1549 1548 1547 1546 1545 1544 1542 1540 1539
1500 1503 1505 1508 1511 1514 1517 1520 1523 1525 1528 1530 1533 1536 1538 1540 1542 1543 1544 1546 1546 1547 1548 1548 1549 1550 1550 1550 1550 1550 1550 1549 1549 1548 1547 1546 1545 1544 1542 1541 1539 1538 1536
1498 1501 1503 1506 1509 1512 1515 1518 1521 1523 1526 1528 1530 1533 1535 1536 1538 1540 1541 1542 1543 1544 1545 1546 1546 1547 1547 1548 1548 1548 1547 1547 1546 1545 1544 1543 1542 1541 1540 1538 1537 1535 1533
1496 1499 1502 1504 1507 1510 1513 1516 1518 1521 1523 1525 1527 1529 1531 1533 1534 1536 1537 1539 1540 1541 1542 1543 1544 1544 1545 1545 1545 1545 1545 1544 1543 1542 1542 1540 1539 1538 1536 1535 1533 1532 1530
1494 1497 1500 1503 1506 1508 1511 1514 1516 1518 1520 1522 1524 1526 1528 1530 1531 1533 1534 1536 1537 1538 1539 1540 1541 1542 1542 1542 1542 1542 1541 1541 1540 1539 1538 1537 1536 1534 1533 1532 1530 1528 1527
1493 1496 1498 1501 1504 1507 1509 1512 1514 1516 1518 1520 1522 1524 1526 1528 1529 1530 1531 1533 1534 1536 1537 1538 1538 1539 1539 1539 1539 1539 1538 1537 1537 1536 1535 1534 1532 1531 1529 1528 1526 1525 1523
1492 1494 1497 1500 1502 1505 1507 1509 1511 1513 1515 1517 1519 1521 1523 1524 1526 1527 1529 1530 1532 1533 1534 1535 1535 1536 1536 1536 1536 1536 1535 1534 1534 1533 1532 1530 1529 1527 1526 1524 1523 1521 1519
1490 1493 1495 1498 1501 1503 1505 1507 1509 1511 1513 1515 1517 1518 1520 1521 1523 1525 1526 1528 1529 1530 1531 1532 1532 1533 1533 1533 1533 1532 1532 1531 1530 1529 1528 1526 1525 1524 1522 1521 1519 1517 1516
1489 1491 1494 1496 1498 1501 1503 1505 1507 1509 1510 1512 1514 1516 1518 1519 1521 1522 1523 1525 1526 1527 1528 1529 1529 1530 1530 1530 1529 1529 1528 1528 1527 1525 1524 1523 1521 1520 1519 1517 1516 1514 1512
1487 1490 1492 1494 1496 1499 1501 1502 1504 1506 1508 1510 1512 1514 1515 1517 1519 1520 1521 1522 1523 1524 1525 1526 1527 1527 1527 1526 1526 1526 1525 1524 1523 1522 1521 1520 1518 1517 1515 1514 1512 1510 1509